Other Public Products
Issued by NWS Grand Forks, ND

Home | Current Version | Previous Version | Text Only | Print | Product List | Glossary Off
Versions: 1 2 3 4 5 6 7 8 9 10 11 12 13 14 15 16 17 18 19 20 21 22 23 24 25 26 27 28 29 30 31 32 33 34 35 36 37 38 39 40 41 42 43 44 45 46 47 48 49 50

984
FPUS83 KFGF 260210
OPUFGF
PRAIRIE TO PINES WEATHER ROUNDUP
NATIONAL WEATHER SERVICE EASTERN NORTH DAKOTA/GRAND FORKS ND
900 PM CDT SAT MAR 25 2017

 **SATELLITE DATA USED TO AUGMENT SKY COVER AT AUTOMATED STATIONS**
 *****  WEATHER ACROSS EASTERN NORTH DAKOTA  *****

CITY           SKY/WX    TMP DP  RH WIND       PRES   REMARKS
GRAND FORKS    FAIR      34  33  96 S8        30.02S
GRAND FORKS AF FAIR      32  31  96 S9        30.01S WCI  25
GRAND CITY NWS NOT AVBL
BUXTON         NOT AVBL
DEVILS LAKE    MOCLDY    36  33  89 S9        29.96S
FARGO          FAIR      34  31  88 CALM      30.03S
WAHPETON ARPT  FAIR      36  32  87 S10       30.03S
$$

 *****  WEATHER ACROSS CENTRAL AND WESTERN NORTH DAKOTA  *****

CITY           SKY/WX    TMP DP  RH WIND       PRES   REMARKS
JAMESTOWN      FAIR      34  31  88 SE9       29.97R
BISMARCK       CLOUDY    47  35  63 SE8       29.92R
MINOT          MOCLDY    47  37  68 S9        29.88R
MINOT AFB      FAIR      42  37  82 S7        29.87R
GARRISON         N/A     42  34  73 SE3       29.90R
WILLISTON      FAIR      53  30  41 S5        29.87S
DICKINSON      CLOUDY    49  28  44 N5        29.87S
HETTINGER      FAIR      45  35  68 NE5       29.89R
$$

 *****  OTHER OBSERVATIONS NORTHEAST NORTH DAKOTA  *****

CITY           SKY/WX    TMP DP  RH WIND       PRES   REMARKS
WALHALLA       NOT AVBL
LANGDON        CLOUDY    34  34 100 S16       29.94F WCI  23
CAVALIER         N/A     34  32  93 S14       29.98S WCI  24
GRAFTON        FAIR      34  34 100 S9        30.02F
CANDO          NOT AVBL
FORT TOTTEN      N/A     36  36 100 S10       29.95S
ROLLA          MOCLDY    34  34 100 S12       29.91S
RUGBY            N/A     36  36 100 S10       29.91R
 ***** THE ABOVE OBSERVATIONS ARE NON NWS ARE NOT QUALITY
        CONTROLLED AND MAY MIS-REPORT RAIN FOR SNOW...
$$

 *****  OTHER OBSERVATIONS SOUTHEAST NORTH DAKOTA *****

CITY           SKY/WX    TMP DP  RH WIND       PRES   REMARKS
COOPERSTOWN    FAIR      34  32  93 S13       29.99S WCI  25
VALLEY CITY    FAIR      32  32 100 SE12      30.01F WCI  23
OAKES          NOT AVBL
GWINNER        CLOUDY    36  32  87 MISG      30.01F
SHEYENNE NWR     N/A     31  29  94 S2        29.95S
BUFFALO        NOT AVBL
WYNDMERE       NOT AVBL
 ***** THE ABOVE OBSERVATIONS ARE NON NWS ARE NOT QUALITY
       CONTROLLED AND MAY MIS-REPORT RAIN FOR SNOW...
$$

  *****  WEATHER ACROSS NORTHERN MINNESOTA  *****

CITY           SKY/WX    TMP DP  RH WIND       PRES   REMARKS
FLAG ISLAND    FAIR      36  28  75 SE10      30.03S
WARROAD        FAIR      37  30  75 S12       30.04F
ROSEAU         FAIR      37  30  75 SE9       30.02F
HALLOCK        FAIR      34  34 100 S10       30.00F
THF RVR FALLS  FAIR     N/A N/A N/A CALM      30.04R
HALSTAD          N/A     33  32  95 SW3         N/A
FOSSTON        FAIR      37  28  70 SE8       30.05R
BAUDETTE       FAIR      38  27  64 SE13      30.05S
WASKISH        FAIR      34  28  80 SE5       30.07S
CROOKSTON      FAIR      34  34 100 SW6       30.04S
$$
  *****  WEATHER ACROSS CENTRAL AND WEST MINNESOTA  *****

CITY           SKY/WX    TMP DP  RH WIND       PRES   REMARKS
BEMIDJI        FAIR      32  28  83 SE7       30.05F
PARK RAPIDS    FAIR      37  26  64 SE8       30.04F
WADENA         FAIR      37  28  70 E9        30.04F
DETROIT LAKES  FAIR      39  32  75 SE5       30.04S
MOORHEAD       FAIR      34  32  93 CALM      30.05R
FERGUS FALLS   FAIR      34  28  80 S7        30.07S
ELBOW LAKE     FAIR      33  31  91 CALM      30.04S
MORRIS MN      CLOUDY    39  34  81 SE8       30.04S
STAPLES        FAIR      36  28  75 E7        30.06S
WHEATON        CLOUDY    37  34  87 SE10      30.06S
$$
  *****  WEATHER ELSEWHERE ACROSS MINNESOTA  *****

CITY           SKY/WX    TMP DP  RH WIND       PRES   REMARKS
DULUTH         CLOUDY    31  29  92 E17       30.14S WCI  19
INTRNTL FALLS  FAIR      35  26  69 SE9       30.10S
ELY            CLOUDY    30  25  80 SE14      30.15F WCI  20
CLOQUET        CLOUDY    30  28  93 E13G20    30.13S WCI  20
BRAINERD       MOCLDY    34  28  79 NE12      30.09R
HIBBING        CLOUDY    30  26  85 SE14      30.13F WCI  19
ALEXANDRIA     CLOUDY    39  33  79 E3        30.05R
SAINT CLOUD    CLOUDY    42  34  73 E3        30.06S
MINNEAPOLIS    CLOUDY    40  34  79 E12       30.06S
$$

  *****  WEATHER ACROSS SOUTH DAKOTA  *****

CITY           SKY/WX    TMP DP  RH WIND       PRES   REMARKS
SIOUX FALLS    CLOUDY    40  38  93 E10       29.98F FOG
BROOKINGS      CLOUDY    37  36  96 E9        30.00R
WATERTOWN      CLOUDY    35  34  96 SE7       29.99F
HURON          CLOUDY    41  38  89 E12       29.98S
SISSETON         N/A     37  34  89 S14       30.02S
ABERDEEN       MOCLDY    35  31  85 SE12      29.99S
MITCHELL       CLOUDY    42  40  92 E10       29.99R FOG
PIERRE         FAIR      45  34  65 SE18      29.89S
MOBRIDGE       FAIR      47  31  53 E13       29.89R
RAPID CITY     FAIR      53  35  50 N12       29.81R
$$

  *****  SOME WEATHER IN NEARBY STATES *****

CITY           SKY/WX    TMP DP  RH WIND       PRES   REMARKS
GLASGOW MT     FAIR      50  27  40 E3        29.87S
GREAT FALLS MT MOCLDY    45  19  35 W9        29.89R
CHEYENNE WY    MOCLDY    50  25  37 S12       29.87S
SCOTTSBLUFF NE FAIR      53  33  46 E6        29.81S
OMAHA NE       CLOUDY    42  37  82 N8        29.94R
DES MOINES IA  DRIZZLE   43  42  97 NE8       29.92R FOG
DAVENPORT IA   CLOUDY    46  44  93 NE17      29.91R FOG
CHICAGO IL     CLOUDY    45  42  89 NE10      29.98S FOG
EAU CLAIRE WI  CLOUDY    38  34  85 E15       30.07S
LA CROSSE WI   CLOUDY    38  36  92 NE10      30.05S
$$

  *****  SOME NATIONAL WEATHER *****

CITY           SKY/WX    TMP DP  RH WIND       PRES   REMARKS
LA GUARDIA NY  CLOUDY    45  39  79 NE8       30.36S
RALEIGH NC     MOCLDY    65  48  54 S5        30.23R
ATLANTA GA     FAIR      68  50  52 SE7       30.10S
NEW ORLEANS LA FAIR      65  63  93 SE7       30.00S
OKLAHOMA CITY  FAIR      53  43  68 E7        29.91S
ALBUQUERQUE NM FAIR      65  14  14 S23G35    29.82R
SALT LAKE CITY MOCLDY    43  39  86 W5        30.01R
LOS ANGELES CA FAIR      59  54  83 SW12      30.03S
BOISE ID       FAIR      52  28  39 NW6       30.00R
SEATTLE WA     MOCLDY    48  36  63 S7        30.08S
$$

*** WEATHER ACROSS MANITOBA...SASKATCHEWAN AND ONTARIO ***
                ***ONTARIO***

CITY           SKY/WX    TMP DP  RH WIND       PRES   REMARKS
GERALDTON      CLOUDY    28   3  34 E8        30.28F WCI  20
THUNDER BAY    MOCLDY    28  25  86 E9        30.28F WCI  20
SIOUX LOOKOUT  MOCLDY    37  14  38 SE13G20   30.09F
TORONTO        CLOUDY    36  30  80 E10       30.37R
BIG TROUT LK   CLOUDY    27   7  43 SE14G20   30.11F WCI  15
PICKLE LAKE    CLOUDY    28   0  29 SE14G21   30.14F WCI  17
DRYDEN         CLOUDY    37  23  56 SE10G18   30.06F
KENORA         MOCLDY    36  25  64 S9        30.04R
$$
                *** MANITOBA***

CITY           SKY/WX    TMP DP  RH WIND       PRES   REMARKS
BRANDON        MOCLDY    36  32  87 SW3       29.88R
DAUPHIN        CLEAR     39  34  81 SW15G23   29.81R
ISLAND LAKE    NOT AVBL
PILOT MOUND      N/A     34  32  93 S12         N/A
THE PAS        CLOUDY    30  28  93 NW21      29.75R WCI  17
THOMPSON       HAIL      28  27  93 E8        29.72F WCI  20
WINNIPEG       MOCLDY    34  32  93 S15G22    29.97S WCI  24
LYNN LAKE      LGT SNOW  19  19 100 N13       29.79S WCI   7
CHURCHILL      CLOUDY    12   7  79 E14       30.10F WCI  -3
GILLAM         SNOW      28  27  93 SE7       29.92F VSB 1/2 WCI  21
$$
                ***SASKATCHEWAN***

CITY           SKY/WX    TMP DP  RH WIND       PRES   REMARKS
ESTEVAN        MOCLDY   N/A N/A N/A MISG        N/A
KINDERSLEY     PTCLDY    43  36  75 E13       29.78R
LLOYDMINSTER   PTCLDY    32  30  93 N5        29.78F
PRINCE ALBERT  CLOUDY    34  30  86 NW6       29.83R
REGINA         MOCLDY    43  36  75 S2        29.86R
YORKTON        PTCLDY    37  34  87 SW5       29.85R



USA.gov is the U.S. government's official web portal to all federal, state and local government web resources and services.